Crestview, FL

9:53 PM CDT on April 22, 2018 (GMT -0500)
Sikes

Weather History for KCEW - January, 2014

Change the Weather History Date:

Wednesday, January 22, 2014

  Actual Average Record
Temperature  
Mean Temperature 37 °F -  
Max Temperature 48 °F 61 °F 80 °F (1949)
Min Temperature 26 °F 35 °F 21 °F (2009)
Degree Days  
Heating Degree Days 28    
Moisture  
Dew Point 15 °F    
Average Humidity 51    
Maximum Humidity 88    
Minimum Humidity 17    
Precipitation  
Precipitation 0.00 in - - ()
Sea Level Pressure  
Sea Level Pressure 30.20 in    
Wind  
Wind Speed 6 mph (NNW)    
Max Wind Speed 9 mph    
Max Gust Speed 18 mph    
Visibility 10 miles    
Events      
Averages and records for this station are not official NWS values.
T = Trace of Precipitation, MM = Missing Value Source: NWS Daily Summary

Daily Weather History Graph

Daily Weather History Graph

Search for Another Location

Airport or City:

Astronomy

Jan. 22, 2014 Rise Set
Actual Time 6:42 AM CST 5:13 PM CST
Civil Twilight 6:16 AM CST 5:38 PM CST
Nautical Twilight 5:47 AM CST 6:08 PM CST
Astronomical Twilight 5:18 AM CST 6:37 PM CST
Moon 11:15 PM CST (1/22) 10:10 AM CST (1/22)
Length of Visible Light 11h 22m
Length of Day
10h 30m
Waning Gibbous, 65% of the Moon is Illuminated
Jan 22
Waning Gibbous
Jan 23
Last Quarter
Jan 30
New
Feb 6
First Quarter
Feb 14
Full

Hourly Weather History & Observations

Time (CST) Temp. Windchill Dew Point Humidity Pressure Visibility Wind Dir Wind Speed Gust Speed Precip Events Conditions
12:53 AM 30.9 °F 23.5 °F 15.1 °F 52% 30.17 in 10.0 mi NNW 8.1 mph 18.4 mph N/A   Clear
1:53 AM 30.0 °F 23.2 °F 15.1 °F 54% 30.17 in 10.0 mi NNW 6.9 mph - N/A   Clear
2:53 AM 28.9 °F 21.9 °F 15.1 °F 56% 30.18 in 10.0 mi NNW 6.9 mph - N/A   Clear
3:53 AM 28.0 °F 20.8 °F 16.0 °F 61% 30.18 in 10.0 mi NNW 6.9 mph - N/A   Clear
4:53 AM 28.0 °F 20.8 °F 15.1 °F 58% 30.18 in 10.0 mi NNW 6.9 mph - N/A   Clear
5:53 AM 27.0 °F 18.0 °F 15.1 °F 61% 30.22 in 10.0 mi NW 9.2 mph - N/A   Clear
6:53 AM 26.1 °F 18.4 °F 15.1 °F 63% 30.24 in 10.0 mi North 6.9 mph - N/A   Clear
7:53 AM 28.0 °F 20.8 °F 14.0 °F 56% 30.25 in 10.0 mi Variable 6.9 mph - N/A   Clear
8:53 AM 30.9 °F 23.5 °F 12.9 °F 47% 30.26 in 10.0 mi NNW 8.1 mph - N/A   Clear
9:53 AM 36.0 °F 31.1 °F 10.9 °F 36% 30.26 in 10.0 mi North 5.8 mph - N/A   Clear
10:53 AM 39.9 °F 35.1 °F 10.0 °F 29% 30.24 in 10.0 mi Variable 6.9 mph - N/A   Clear
11:53 AM 43.0 °F 38.8 °F 5.0 °F 21% 30.21 in 10.0 mi Variable 6.9 mph - N/A   Clear
12:53 PM 45.0 °F 41.2 °F 5.0 °F 19% 30.18 in 10.0 mi Variable 6.9 mph - N/A   Clear
1:53 PM 48.0 °F - 5.0 °F 17% 30.17 in 8.0 mi NW 8.1 mph - N/A   Clear
2:53 PM 48.0 °F - 7.0 °F 19% 30.16 in 10.0 mi West 3.5 mph - N/A   Clear
3:53 PM 48.9 °F - 8.1 °F 19% 30.17 in 10.0 mi Variable 3.5 mph - N/A   Clear
4:53 PM 46.9 °F - 10.0 °F 22% 30.18 in 10.0 mi WNW 4.6 mph - N/A   Clear
5:53 PM 37.0 °F - 24.1 °F 59% 30.18 in 10.0 mi Calm Calm - N/A   Clear
6:53 PM 32.0 °F - 23.0 °F 69% 30.19 in 10.0 mi Calm Calm - N/A   Clear
7:53 PM 30.9 °F - 21.9 °F 69% 30.20 in 10.0 mi Calm Calm - N/A   Clear
8:53 PM 28.9 °F - 23.0 °F 78% 30.23 in 10.0 mi Calm Calm - N/A   Clear
9:53 PM 28.0 °F - 23.0 °F 81% 30.23 in 10.0 mi Calm Calm - N/A   Clear
10:53 PM 28.0 °F - 24.1 °F 85% 30.23 in 10.0 mi Calm Calm - N/A   Clear
11:53 PM 28.0 °F - 25.0 °F 88% 30.23 in 10.0 mi Calm Calm - N/A   Clear